Torna al catalogo

SL-12 DEB

LostHEO
NORAD 43525·DEBRIS·🇷🇺 Russia

Lanciato Mar 1, 2010 da Baikonur Cosmodrome

Loading…

Prossimi Passaggi (prossime 24 ore)

TLE

ObsoletoSource: Space-Track

Epoca: Sep 23, 2018, 22:05 UTC

1 43525U 10007X   18266.92067132 +.01153260 +00000-0 +32081+0 0  9991
2 43525 066.0409 135.0331 5723750 040.6770 014.6987 04.43619621004987

Traccia SL-12 DEB in tempo reale con AllMySat

Download on the App Store